Weather History for Tijuana, Mexico

Change the Weather History Date:

Saturday, March 23, 2013

  Actual Average Record
Temperature  
Mean Temperature 56 °F -  
Max Temperature 64 °F 66 °F 87 °F (2008)
Min Temperature 48 °F 50 °F 42 °F (2006)
Degree Days  
Heating Degree Days 9    
Growing Degree Days 6 (Base 50)    
Moisture  
Dew Point 48 °F    
Average Humidity 74    
Maximum Humidity 94    
Minimum Humidity 56    
Precipitation  
Precipitation 0.00 in - - ()
Sea Level Pressure  
Sea Level Pressure 30.00 in    
Wind  
Wind Speed 2 mph ()    
Max Wind Speed 12 mph    
Max Gust Speed -    
Visibility 5.2 miles    
Events      
Averages and records for this station are not official NWS values.
T = Trace of Precipitation, MM = Missing Value Source: Averaged Metar Reports

Daily Weather History Graph

Daily Weather History Graph

Search for Another Location

Airport:

Trip Planner

Search our weather history database for the weather conditions in past years. The results will help you decide how hot, cold, wet, or windy it might be!

Date:

Astronomy

Mar. 23, 2013 Rise Set
Actual Time 6:47 AM PDT 7:01 PM PDT
Civil Twilight 6:22 AM PDT 7:26 PM PDT
Nautical Twilight 5:54 AM PDT 7:55 PM PDT
Astronomical Twilight 5:25 AM PDT 8:24 PM PDT
Moon 3:43 PM PDT (3/23) 4:15 AM PDT (3/23)
Length of Visible Light 13h 03m
Length of Day
12h 14m
Waxing Gibbous, 86% of the Moon is Illuminated
Mar 23
Waxing Gibbous
Mar 27
Full
Apr 2
Last Quarter
Apr 10
New
Apr 18
First Quarter

Hourly Weather History & Observations

Time (PDT) Temp. Dew Point Humidity Pressure Visibility Wind Dir Wind Speed Gust Speed Precip Events Conditions
1:37 AM 51.8 °F 44.6 °F 76% 29.95 in 7.0 mi Calm Calm - N/A   Clear
1:40 AM 50.0 °F 44.6 °F 82% 29.98 in 7.0 mi Calm Calm - N/A   Clear
2:51 AM 50.0 °F 44.6 °F 82% 29.95 in 7.0 mi Calm Calm - N/A   Clear
4:52 AM 48.2 °F 44.6 °F 87% 29.98 in 7.0 mi Calm Calm - N/A   Mostly Cloudy
5:46 AM 48.2 °F 46.4 °F 93% 29.95 in 5.0 mi Calm Calm - N/A   Overcast
6:50 AM 51.8 °F 48.2 °F 88% 29.98 in 4.0 mi Calm Calm - N/A   Overcast
7:43 AM 53.6 °F 48.2 °F 82% 30.01 in 3.0 mi ENE 3.5 mph - N/A   Overcast
8:50 AM 53.6 °F 48.2 °F 82% 30.01 in 3.0 mi Calm Calm - N/A   Overcast
9:40 AM 57.2 °F 48.2 °F 72% 30.02 in 3.0 mi Calm Calm - N/A   Haze
10:46 AM 59.0 °F 48.2 °F 67% 30.05 in 4.0 mi Calm Calm - N/A   Scattered Clouds
11:26 AM 60.8 °F 48.2 °F 63% 30.03 in 5.0 mi NNW 5.8 mph - N/A   Clear
11:41 AM 62.6 °F 48.2 °F 59% 30.02 in 5.0 mi North 5.8 mph - N/A   Clear
12:40 PM 64.4 °F 48.2 °F 56% 30.00 in 5.0 mi West 4.6 mph - N/A   Clear
1:40 PM 64.4 °F 50.0 °F 59% 30.04 in 5.0 mi West 6.9 mph - N/A   Clear
2:44 PM 64.4 °F 50.0 °F 59% 29.99 in 5.0 mi WNW 10.4 mph - N/A   Clear
3:48 PM 64.4 °F 48.2 °F 56% 29.98 in 6.0 mi NW 9.2 mph - N/A   Clear
4:54 PM 64.4 °F 48.2 °F 56% 30.01 in 6.0 mi West 6.9 mph - N/A   Clear
5:49 PM 60.8 °F 50.0 °F 68% 29.99 in 6.0 mi NW 11.5 mph - N/A   Scattered Clouds
6:50 PM 57.2 °F 48.2 °F 72% 29.99 in 6.0 mi NW 10.4 mph - N/A   Partly Cloudy
7:50 PM 55.4 °F 48.2 °F 77% 30.01 in 6.0 mi WNW 6.9 mph - N/A   Partly Cloudy
8:45 PM 55.4 °F 50.0 °F 82% 30.01 in 5.0 mi NW 6.9 mph - N/A   Partly Cloudy
9:43 PM 55.4 °F 50.0 °F 82% 30.04 in 5.0 mi NW 6.9 mph - N/A   Partly Cloudy
10:42 PM 53.6 °F 48.2 °F 82% 30.05 in 5.0 mi Calm Calm - N/A   Partly Cloudy
11:40 PM 51.8 °F 50.0 °F 94% 30.05 in 5.0 mi Calm Calm - N/A   Partly Cloudy